Regional Weather Roundup
Issued by NWS Sioux Falls, SD

Home | Current Version | Previous Version | Text Only | Print | Product List | Glossary On
Versions: 1 2 3 4 5 6 7 8 9 10 11 12 13 14 15 16 17 18 19 20 21 22 23 24 25 26 27 28 29 30 31 32 33 34 35 36 37 38 39 40 41 42 43 44 45 46 47 48 49 50
000
ASUS43 KFSD 142310
RWRFSD

WEATHER ROUNDUP FOR SE SOUTH DAKOTA/SW MINNESOTA/NW IOWA
NATIONAL WEATHER SERVICE SIOUX FALLS SD
500 PM CST THU DEC 14 2017

NOTE: "FAIR" INDICATES FEW OR NO CLOUDS BELOW 12,000 FEET WITH NO
SIGNIFICANT WEATHER AND OR OBSTRUCTIONS TO VISIBILITY.


SDZ038>040-050-052>070-150000-
SOUTHEAST SOUTH DAKOTA

CITY           SKY/WX    TMP DP  RH WIND       PRES   REMARKS
BROOKINGS      CLOUDY    27  25  92 N6        30.07R WCI  20
CHAMBERLAIN    CLOUDY    34  32  92 N14G20    30.15R WCI  25
HURON          CLOUDY    30  27  88 N9        30.12S WCI  22
MADISON        CLOUDY    28  28 100 N13       30.06S WCI  18
MITCHELL       CLOUDY    34  28  79 NW12      30.12R WCI  25
SIOUX FALLS    CLOUDY    33  29  85 N15       30.06S WCI  23
WINNER         MOCLDY    34  30  85 NW10      30.16R WCI  26
YANKTON        LGT RAIN  36  30  79 NW18G24   30.09R
$$

MNZ071-072-080-081-089-090-097-098-150000-
SOUTHWEST MINNESOTA

CITY           SKY/WX    TMP DP  RH WIND       PRES   REMARKS
FAIRMONT       CLOUDY    27  20  75 NW13      30.05R WCI  16
JACKSON        CLOUDY    28  19  69 MISG      30.04S
LUVERNE        CLOUDY    32  28  86 NW8       30.05S WCI  25
MARSHALL       CLOUDY    25  23  92 NW10      30.08R WCI  15
MONTEVIDEO     CLOUDY    27  21  80 N14       30.08R WCI  15
PIPESTONE      MIX PCPN  27  25  93 N10       30.05R WCI  17
REDWOOD FALLS  CLOUDY    27  20  75 NW9       30.06R WCI  18
TRACY          MIX PCPN  27  25  93 NW10      30.07R WCI  17
WINDOM           N/A     27  14  59 NW10      30.04S WCI  17
WORTHINGTON    CLOUDY    28  23  81 N9        30.04S WCI  19
$$

IAZ001>003-012>014-020>022-031-032-NEZ013-014-SDZ071-150000-
NORTHWEST IOWA

CITY           SKY/WX    TMP DP  RH WIND       PRES   REMARKS
CHEROKEE       CLOUDY    33  28  81 CALM      30.05F
DENISON        CLOUDY    34  23  64 CALM      30.08S
ESTHERVILLE    CLOUDY    28  20  71 NW9       30.04R WCI  19
LE MARS        CLOUDY    36  27  69 NW8       30.06S
ORANGE CITY    FLURRIES  36  30  80 NW12      30.05R
SHELDON        CLOUDY    32  28  86 NW3       30.03S
SIOUX CITY     CLOUDY    37  26  64 NW10      30.07S
SPENCER        CLOUDY    31  24  75 N6        30.05S WCI  25
STORM LAKE     CLOUDY    32  27  80 NW6       30.04S WCI  26
$$

ABBREVIATIONS USED IN REMARKS
   TC - TEMPERATURE IN CELSIUS
  WCI - WIND CHILL INDEX
   HX - HEAT INDEX
  VSB - VISIBILITY





USA.gov is the U.S. government's official web portal to all federal, state and local government web resources and services.